DW2659 Weather Reports


time (UTC)temp
C
wind
direction
speed
KPH
gust
KPH
rain 1hr
cm
rain 24hr
cm
rain mn
cm
humidity
%
barometer
mb
20260506195903 18 218 6.4 12.9 1.24 1.68 1.68 85 1012.2
20260506195403 18 266 6.4 12.9 1.24 1.68 1.68 85 1012.2
20260506194904 18 192 3.2 4.8 1.24 1.68 1.68 85 1012.2
20260506194403 18 147 4.8 9.7 1.14 1.57 1.57 85 1012.7
20260506193903 18 256 4.8 8.0 1.09 1.52 1.52 84 1013.5
20260506192903 19 290 4.8 19.3 0.10 0.53 0.53 82 1012.3
20260506192403 20 11 1.6 4.8 0.00 0.43 0.43 84 1012.3
20260506191903 20 321 0.0 3.2 0.00 0.43 0.43 85 1012.3
20260506190903 20 198 0.0 1.6 0.00 0.43 0.43 85 1012.6
20260506190403 20 198 0.0 0.0 0.00 0.43 0.43 85 1012.6
20260506185904 21 198 0.0 0.0 0.00 0.43 0.43 85 1012.6
20260506185403 21 198 0.0 0.0 0.00 0.43 0.43 84 1012.6
20260506184904 21 198 0.0 1.6 0.00 0.43 0.43 84 1012.6
20260506184404 21 198 0.0 0.0 0.00 0.43 0.43 84 1012.8
20260506183903 21 198 0.0 0.0 0.00 0.43 0.43 83 1012.8
20260506182904 21 198 0.0 1.6 0.00 0.43 0.43 83 1013.0
20260506182403 21 198 0.0 0.0 0.00 0.43 0.43 83 1013.1
20260506181904 21 198 0.0 1.6 0.00 0.43 0.43 82 1013.3
20260506181404 21 164 1.6 3.2 0.00 0.43 0.43 82 1013.3
20260506180904 21 196 0.0 3.2 0.00 0.43 0.43 82 1013.3
20260506180403 21 238 1.6 4.8 0.00 0.43 0.43 82 1013.3
20260506175903 21 136 1.6 3.2 0.00 0.43 0.43 82 1013.3
20260506175404 21 213 1.6 3.2 0.00 0.43 0.43 82 1013.3
20260506174904 21 251 1.6 4.8 0.00 0.43 0.43 82 1013.3
20260506174403 21 233 1.6 4.8 0.00 0.43 0.43 81 1013.4
20260506173904 21 236 1.6 4.8 0.00 0.43 0.43 81 1013.4
20260506173403 21 251 0.0 4.8 0.00 0.43 0.43 82 1013.4
20260506172904 21 253 4.8 9.7 0.00 0.43 0.43 81 1013.0
20260506172405 20 227 3.2 8.0 0.00 0.43 0.43 82 1013.0
20260506171903 20 226 4.8 9.7 0.00 0.43 0.43 82 1013.0
20260506171403 20 203 3.2 11.3 0.00 0.43 0.43 82 1013.0
20260506170904 20 194 6.4 19.3 0.00 0.43 0.43 83 1013.0
20260506170404 20 227 3.2 11.3 0.00 0.43 0.43 83 1013.0
20260506165904 20 242 4.8 9.7 0.00 0.43 0.43 83 1013.1
20260506165405 20 199 3.2 9.7 0.00 0.43 0.43 83 1013.1
20260506164903 20 191 4.8 11.3 0.00 0.43 0.43 83 1013.1
20260506163905 20 215 4.8 14.5 0.00 0.43 0.43 83 1013.1
20260506163404 19 224 6.4 12.9 0.00 0.43 0.43 83 1013.1
20260506162404 19 175 4.8 20.9 0.00 0.43 0.43 84 1013.2
20260506161903 19 177 3.2 12.9 0.00 0.43 0.43 85 1013.2
20260506160905 19 220 4.8 14.5 0.00 0.43 0.43 85 1013.2
20260506160404 19 284 3.2 4.8 0.03 0.43 0.43 85 1013.2
20260506155903 19 110 3.2 9.7 0.08 0.43 0.43 85 1013.4
20260506155404 19 231 3.2 8.0 0.10 0.43 0.43 85 1013.4
20260506154904 18 140 4.8 12.9 0.15 0.43 0.43 85 1013.4
20260506153904 19 239 1.6 8.0 0.23 0.43 0.43 86 1013.4
20260506152903 18 260 3.2 4.8 0.30 0.43 0.43 87 1012.6
20260506152405 18 5 0.0 0.0 0.30 0.43 0.43 86 1013.1
20260506151903 18 5 1.6 4.8 0.33 0.43 0.43 86 1013.1
20260506151403 18 340 0.0 3.2 0.33 0.43 0.43 86 1013.9
20260506150905 18 227 3.2 11.3 0.36 0.43 0.43 85 1013.9
20260506150404 18 235 3.2 19.3 0.33 0.41 0.41 85 1013.6
20260506145903 18 218 4.8 11.3 0.28 0.36 0.36 85 1014.5
20260506145405 18 235 4.8 9.7 0.25 0.33 0.33 84 1014.7
20260506144903 18 159 4.8 11.3 0.20 0.28 0.28 84 1014.7
20260506143904 18 233 1.6 11.3 0.18 0.20 0.20 84 1014.2
20260506143403 18 236 9.7 19.3 0.15 0.18 0.18 84 1014.2
20260506142904 18 250 1.6 4.8 0.10 0.13 0.13 84 1013.8
20260506142406 18 179 1.6 3.2 0.13 0.13 0.13 84 1013.8
20260506141903 18 179 1.6 3.2 0.10 0.10 0.10 84 1013.8
20260506140904 18 257 1.6 4.8 0.08 0.08 0.08 83 1013.5
20260506135905 18 276 1.6 3.2 0.08 0.08 0.08 83 1013.5
20260506134904 18 193 0.0 3.2 0.08 0.08 0.08 82 1013.5
20260506134405 18 269 0.0 1.6 0.08 0.08 0.08 82 1013.4
20260506133903 18 269 0.0 1.6 0.03 0.03 0.03 80 1013.4
20260506133405 18 269 0.0 1.6 0.03 0.03 0.03 80 1013.4
20260506132904 18 269 0.0 4.8 0.03 0.03 0.03 78 1013.2
20260506132404 18 194 1.6 3.2 0.00 0.00 0.00 76 1013.2
20260506131903 18 194 0.0 3.2 0.00 0.00 0.00 76 1013.2
20260506131405 18 185 1.6 4.8 0.00 0.00 0.00 75 1012.8
20260506130903 18 230 0.0 1.6 0.00 0.00 0.00 74 1012.8
20260506130404 18 257 0.0 3.2 0.00 0.00 0.00 73 1012.8
20260506125404 18 156 3.2 8.0 0.00 0.00 0.00 73 1012.8
20260506123904 18 232 6.4 11.3 0.00 0.00 0.00 72 1012.6
20260506123405 18 166 3.2 8.0 0.00 0.00 0.00 72 1012.2
20260506122903 18 236 3.2 4.8 0.00 0.00 0.00 72 1012.2
20260506122404 18 227 3.2 8.0 0.00 0.00 0.00 72 1012.2
20260506121905 18 225 3.2 9.7 0.00 0.00 0.00 72 1012.2
20260506121404 18 232 3.2 8.0 0.00 0.00 0.00 72 1012.3
20260506120903 18 175 4.8 12.9 0.00 0.00 0.00 72 1012.3
20260506115904 18 250 1.6 8.0 0.00 0.00 0.00 72 1012.0
20260506115404 18 227 4.8 8.0 0.00 0.00 0.00 72 1012.0
20260506114904 18 239 3.2 11.3 0.00 0.00 0.00 72 1012.0
20260506114405 18 211 3.2 11.3 0.00 0.00 0.00 72 1012.2
20260506113904 18 214 3.2 8.0 0.00 0.00 0.00 71 1012.2
20260506113404 18 242 3.2 4.8 0.00 0.00 0.00 71 1012.3
20260506112905 18 247 3.2 4.8 0.00 0.00 0.00 71 1012.0
20260506112404 18 263 1.6 4.8 0.00 0.00 0.00 70 1012.0
20260506111904 18 221 4.8 8.0 0.00 0.00 0.00 70 1012.0
20260506111404 18 186 4.8 11.3 0.00 0.00 0.00 70 1011.4
20260506110904 18 240 4.8 11.3 0.00 0.00 0.00 70 1011.4
20260506110404 18 219 4.8 9.7 0.00 0.00 0.00 70 1011.4
20260506105404 19 188 4.8 11.3 0.00 0.00 0.00 69 1011.4
20260506104904 19 237 3.2 4.8 0.00 0.00 0.00 69 1011.4
20260506103905 19 216 3.2 4.8 0.00 0.00 0.00 69 1011.2
20260506103404 19 248 3.2 4.8 0.00 0.00 0.00 69 1011.2
20260506102904 19 200 1.6 4.8 0.00 0.00 0.00 69 1011.4
20260506102405 19 147 1.6 4.8 0.00 0.00 0.00 69 1011.4
20260506101903 19 249 3.2 4.8 0.00 0.00 0.00 69 1011.4
20260506100905 19 167 0.0 3.2 0.00 0.00 0.00 68 1011.7
20260506100404 19 232 1.6 3.2 0.00 0.00 0.00 68 1011.7
20260506095904 19 232 0.0 1.6 0.00 0.00 0.00 68 1011.4
20260506095404 19 232 1.6 3.2 0.00 0.00 0.00 68 1011.4
20260506094904 19 225 1.6 4.8 0.00 0.00 0.00 67 1011.4
20260506094404 19 186 1.6 4.8 0.00 0.00 0.00 67 1010.8
20260506093905 19 265 0.0 4.8 0.00 0.00 0.00 67 1010.8
20260506093404 19 240 1.6 3.2 0.00 0.00 0.00 67 1010.8
20260506092405 19 190 1.6 3.2 0.00 0.00 0.00 66 1010.8
20260506091904 19 230 3.2 4.8 0.00 0.00 0.00 65 1010.8
20260506091404 19 225 1.6 4.8 0.00 0.00 0.00 65 1010.9
20260506090905 19 165 3.2 4.8 0.00 0.00 0.00 65 1010.9
20260506090404 19 211 3.2 4.8 0.00 0.00 0.00 65 1010.9
20260506085904 19 179 3.2 8.0 0.00 0.00 0.00 64 1010.8
20260506085405 19 218 3.2 4.8 0.00 0.00 0.00 64 1010.8
20260506084905 19 238 1.6 3.2 0.00 0.00 0.00 64 1010.8
20260506084404 19 250 3.2 8.0 0.00 0.00 0.00 64 1010.8
20260506083905 19 232 3.2 4.8 0.00 0.00 0.00 64 1010.8
20260506083404 19 243 1.6 4.8 0.00 0.00 0.00 63 1010.8
20260506082904 19 252 1.6 8.0 0.00 0.00 0.00 63 1010.9
20260506082405 19 228 3.2 12.9 0.00 0.00 0.00 62 1010.9
20260506081904 19 206 3.2 9.7 0.00 0.00 0.00 62 1010.9
20260506081404 19 216 3.2 8.0 0.00 0.00 0.00 62 1010.7
20260506080905 19 226 6.4 12.9 0.00 0.00 0.00 61 1010.7
20260506080404 19 234 4.8 11.3 0.00 0.00 0.00 61 1010.7
20260506073404 19 200 4.8 9.7 0.00 0.00 0.00 59 1010.6
20260506072904 19 214 4.8 16.1 0.00 0.00 0.00 59 1010.6
20260506072405 19 214 8.0 16.1 0.00 0.00 0.00 59 1010.6
20260506071904 20 241 4.8 12.9 0.00 0.00 0.00 58 1010.6
20260506071404 20 224 4.8 12.9 0.00 0.00 0.00 58 1010.8
20260506070404 20 193 4.8 8.0 0.00 0.00 0.00 57 1010.8
20260506062402 20 177 1.6 4.8 0.00 0.00 0.00 55 1011.4
20260506061903 20 200 1.6 9.7 0.00 0.00 0.00 54 1011.4
20260506061402 20 136 4.8 9.7 0.00 0.00 0.00 54 1011.4
20260506060902 20 160 4.8 8.0 0.00 0.00 0.00 53 1011.4
20260506060404 20 219 3.2 11.3 0.00 0.00 0.00 53 1011.4
20260506051403 21 171 3.2 8.0 0.00 0.00 0.00 51 1011.8
20260506050903 21 225 3.2 8.0 0.00 0.00 0.00 51 1011.8
20260506050404 21 220 3.2 9.7 0.00 0.00 0.00 51 1011.8
20260506044903 21 173 1.6 4.8 0.00 0.00 0.00 51 1011.7
20260506044403 21 143 1.6 3.2 0.00 0.00 0.00 51 1011.7
20260506043403 21 215 3.2 4.8 0.00 0.00 0.00 50 1011.7
20260506042903 21 181 1.6 4.8 0.00 0.00 0.00 50 1011.7
20260506041403 21 217 1.6 4.8 0.00 0.00 0.00 50 1011.9
20260506040403 21 226 3.2 4.8 0.00 0.00 0.00 50 1011.9
20260506035902 21 215 3.2 4.8 0.00 0.00 0.00 49 1011.8
20260506034904 21 172 1.6 4.8 0.00 0.00 0.00 49 1011.8
20260506034402 21 232 3.2 4.8 0.00 0.00 0.00 49 1011.8
20260506033903 21 222 1.6 4.8 0.00 0.00 0.00 49 1011.8
20260506033404 21 234 3.2 4.8 0.00 0.00 0.00 48 1011.8
20260506032903 21 198 3.2 4.8 0.00 0.00 0.00 47 1011.6
20260506032403 21 191 3.2 8.0 0.00 0.00 0.00 47 1011.6
20260506031402 21 189 0.0 3.2 0.00 0.00 0.00 47 1012.0
20260506030903 21 199 1.6 4.8 0.00 0.00 0.00 47 1012.0
20260506030404 21 171 0.0 3.2 0.00 0.00 0.00 47 1012.0
20260506025903 21 119 1.6 4.8 0.00 0.00 0.00 46 1012.0
20260506025402 21 247 3.2 8.0 0.00 0.00 0.00 46 1012.1
20260506024903 21 200 3.2 8.0 0.00 0.00 0.00 46 1012.1
20260506023903 21 172 4.8 9.7 0.00 0.00 0.00 45 1011.9
20260506023403 21 222 3.2 4.8 0.00 0.00 0.00 45 1011.9
20260506022403 22 244 1.6 4.8 0.00 0.00 0.00 45 1011.9
20260506021904 22 235 3.2 8.0 0.00 0.00 0.00 44 1011.8
20260506021403 22 146 1.6 3.2 0.00 0.00 0.00 44 1011.7
20260506020903 22 144 3.2 8.0 0.00 0.00 0.00 44 1011.7
20260506015902 22 186 3.2 8.0 0.00 0.00 0.00 43 1011.6
20260506015403 22 157 3.2 4.8 0.00 0.00 0.00 43 1011.6
20260506014904 22 164 3.2 9.7 0.00 0.00 0.00 43 1011.6
20260506014403 22 218 4.8 9.7 0.00 0.00 0.00 42 1011.4
20260506013903 22 187 3.2 8.0 0.00 0.00 0.00 42 1011.4
20260506013403 22 223 3.2 11.3 0.00 0.00 0.00 42 1011.4
20260506012903 22 180 3.2 4.8 0.00 0.00 0.00 42 1011.5
20260506012402 22 167 1.6 4.8 0.00 0.00 0.00 42 1011.5
20260506010903 22 192 3.2 4.8 0.00 0.00 0.00 41 1011.3
20260506010404 22 193 3.2 9.7 0.00 0.00 0.00 41 1011.4
20260506005903 22 207 3.2 9.7 0.00 0.00 0.00 41 1011.4
20260506005403 22 248 1.6 8.0 0.00 0.00 0.00 41 1011.4
20260506004904 22 217 3.2 8.0 0.00 0.00 0.00 41 1011.4
20260506004403 22 172 3.2 9.7 0.00 0.00 0.00 41 1011.3
20260506002903 22 234 3.2 9.7 0.00 0.00 0.00 41 1011.3
20260506002403 22 219 4.8 8.0 0.00 0.00 0.00 41 1011.2
20260506001904 22 232 3.2 8.0 0.00 0.00 0.00 41 1011.2
20260506001403 22 203 3.2 8.0 0.00 0.00 0.00 41 1011.1
20260506000903 22 234 3.2 9.7 0.00 0.00 0.00 40 1011.1
20260506000404 22 240 3.2 8.0 0.00 0.00 0.00 40 1011.1
20260505235403 23 194 4.8 11.3 0.00 0.00 0.00 40 1011.4
20260505234904 23 207 4.8 9.7 0.00 0.00 0.00 40 1011.4
20260505234403 23 237 4.8 11.3 0.00 0.00 0.00 40 1011.4
20260505232903 23 236 6.4 16.1 0.00 0.00 0.00 38 1011.3
20260505232403 23 223 8.0 14.5 0.00 0.00 0.00 37 1011.3
20260505231904 23 229 8.0 16.1 0.00 0.00 0.00 38 1011.3
20260505231403 23 245 8.0 14.5 0.00 0.00 0.00 38 1011.3
20260505225402 23 242 4.8 14.5 0.00 0.00 0.00 37 1011.3
20260505224904 23 201 8.0 19.3 0.00 0.00 0.00 36 1011.3
20260505224403 23 143 9.7 14.5 0.00 0.00 0.00 36 1011.2
20260505223404 24 152 8.0 14.5 0.00 0.00 0.00 36 1011.3
20260505222902 23 169 4.8 12.9 0.00 0.00 0.00 35 1011.4
20260505222403 24 238 4.8 12.9 0.00 0.00 0.00 36 1011.4
20260505221904 24 201 3.2 11.3 0.00 0.00 0.00 36 1011.4
20260505221403 23 236 4.8 9.7 0.00 0.00 0.00 35 1011.4
20260505220903 23 187 4.8 11.3 0.00 0.00 0.00 36 1011.4
20260505214904 23 209 3.2 8.0 0.00 0.00 0.00 36 1012.0
20260505214403 24 234 3.2 11.3 0.00 0.00 0.00 36 1011.9
20260505213903 24 239 6.4 12.9 0.00 0.00 0.00 34 1011.9
20260505213404 24 207 4.8 9.7 0.00 0.00 0.00 35 1011.9
20260505212903 24 218 4.8 12.9 0.00 0.00 0.00 35 1011.9
20260505212403 24 236 3.2 4.8 0.00 0.00 0.00 34 1011.9
20260505211904 24 246 6.4 11.3 0.00 0.00 0.00 33 1011.9
20260505211403 24 250 4.8 4.8 0.00 0.00 0.00 32 1011.7
20260505210904 24 202 3.2 9.7 0.00 0.00 0.00 30 1011.7
20260505205404 25 226 8.0 19.3 0.00 0.00 0.00 27 1012.0
20260505204903 25 228 8.0 24.1 0.00 0.00 0.00 27 1012.0
20260505204403 25 251 4.8 12.9 0.00 0.00 0.00 27 1012.0
20260505203904 25 249 11.3 22.5 0.00 0.00 0.00 28 1012.0
20260505203403 25 229 4.8 14.5 0.00 0.00 0.00 32 1012.0
20260505202903 26 247 4.8 22.5 0.00 0.00 0.00 32 1012.3
20260505202404 26 119 6.4 22.5 0.00 0.00 0.00 30 1012.3
20260505201903 26 235 6.4 14.5 0.00 0.00 0.00 30 1012.3
20260505201403 26 186 11.3 19.3 0.00 0.00 0.00 30 1012.6
20260505200904 26 247 9.7 19.3 0.00 0.00 0.00 30 1012.6